West Palm Beach, FL

3:19 PM EDT on October 16, 2019 (GMT -0400)
Palm Beach International

Weather History for KPBI - May, 2019

Change the Weather History Date:

Sunday, May 12, 2019

  Actual Average Record
Temperature  
Mean Temperature 80 °F 78 °F  
Max Temperature 88 °F 85 °F 95 °F (1974)
Min Temperature 71 °F 70 °F 50 °F (1923)
Degree Days  
Heating Degree Days 0 0  
Month to date heating degree days 0 0  
Since 1 July heating degree days 144 233  
Cooling Degree Days 15 13  
Month to date cooling degree days 171 142  
Year to date cooling degree days 1096 837  
Growing Degree Days 30 (Base 50)    
Moisture  
Dew Point 71 °F    
Average Humidity 74    
Maximum Humidity 93    
Minimum Humidity 55    
Precipitation  
Precipitation 0.47 in 0.11 in 3.43 in (1972)
Month to date precipitation 4.07 1.12  
Year to date precipitation 19.79 15.32  
Snow  
Snow 0.00 in - - ()
Month to date snowfall 0.0  
Since 1 July snowfall 0.0  
Snow Depth 0.00 in    
Sea Level Pressure  
Sea Level Pressure 29.93 in    
Wind  
Wind Speed 7 mph (SSE)    
Max Wind Speed 24 mph    
Max Gust Speed 29 mph    
Visibility 9 miles    
Events Rain , Thunderstorm    
T = Trace of Precipitation, MM = Missing Value Source: NWS Daily Summary

Daily Weather History Graph

Daily Weather History Graph

Search for Another Location

Airport or City:

Astronomy

May. 12, 2019 Rise Set
Actual Time 6:34 AM EDT 7:58 PM EDT
Civil Twilight 6:09 AM EDT 8:23 PM EDT
Nautical Twilight 5:40 AM EDT 8:53 PM EDT
Astronomical Twilight 5:09 AM EDT 9:24 PM EDT
Moon 1:47 PM EDT (5/12) 2:23 AM EDT (5/12)
Length of Visible Light 14h 14m
Length of Day
13h 23m
First Quarter, 57% of the Moon is Illuminated
May 12
First Quarter
May 18
Full
May 26
Last Quarter
Jun 3
New
Jun 10
First Quarter

Hourly Weather History & Observations

Time (EDT) Temp. Heat Index Dew Point Humidity Pressure Visibility Wind Dir Wind Speed Gust Speed Precip Events Conditions
12:53 AM 79.0 °F - 70.0 °F 74% 29.98 in 10.0 mi SSE 8.1 mph - N/A   Partly Cloudy
1:53 AM 78.1 °F - 70.0 °F 76% 29.96 in 10.0 mi South 3.5 mph - N/A   Partly Cloudy
2:53 AM 77.0 °F - 71.1 °F 82% 29.95 in 10.0 mi Calm Calm - N/A   Partly Cloudy
3:53 AM 77.0 °F - 71.1 °F 82% 29.94 in 10.0 mi Calm Calm - N/A   Partly Cloudy
4:53 AM 77.0 °F - 71.1 °F 82% 29.94 in 10.0 mi Calm Calm - N/A   Partly Cloudy
5:53 AM 75.9 °F - 71.1 °F 85% 29.94 in 10.0 mi South 3.5 mph - N/A   Partly Cloudy
6:53 AM 77.0 °F - 72.0 °F 84% 29.96 in 10.0 mi Calm Calm - N/A   Scattered Clouds
7:53 AM 78.1 °F - 73.0 °F 84% 29.96 in 10.0 mi South 4.6 mph - N/A   Scattered Clouds
8:53 AM 82.0 °F 86.3 °F 71.1 °F 69% 29.97 in 10.0 mi South 10.4 mph - N/A   Scattered Clouds
9:53 AM 84.0 °F 89.0 °F 71.1 °F 65% 29.96 in 10.0 mi South 11.5 mph 20.7 mph N/A   Scattered Clouds
10:53 AM 86.0 °F 91.5 °F 71.1 °F 61% 29.95 in 10.0 mi SSE 12.7 mph - N/A   Scattered Clouds
11:53 AM 87.1 °F 92.0 °F 70.0 °F 57% 29.94 in 10.0 mi SE 17.3 mph - N/A   Scattered Clouds
12:53 PM 81.0 °F 86.2 °F 73.9 °F 79% 29.95 in 7.0 mi NNE 4.6 mph - 0.02 in Rain Light Rain
1:53 PM 84.0 °F 91.9 °F 75.0 °F 74% 29.92 in 10.0 mi SSE 13.8 mph - 0.09 in   Scattered Clouds
2:53 PM 87.1 °F 94.5 °F 73.0 °F 63% 29.90 in 10.0 mi SE 16.1 mph - N/A   Scattered Clouds
3:53 PM 87.1 °F 92.8 °F 71.1 °F 59% 29.88 in 10.0 mi SE 17.3 mph - N/A   Scattered Clouds
4:46 PM 84.9 °F 90.1 °F 71.1 °F 63% 29.86 in 10.0 mi SSE 20.7 mph 28.8 mph N/A Thunderstorm Thunderstorm
4:53 PM 84.0 °F 89.6 °F 72.0 °F 67% 29.88 in 10.0 mi South 17.3 mph 27.6 mph N/A Thunderstorm Thunderstorm
5:53 PM 80.1 °F 85.1 °F 75.0 °F 85% 29.87 in 10.0 mi South 4.6 mph - 0.05 in   Mostly Cloudy
6:41 PM 80.1 °F 83.8 °F 72.0 °F 76% 29.90 in 10.0 mi SW 3.5 mph - N/A Thunderstorm Thunderstorm
6:53 PM 80.1 °F 83.8 °F 72.0 °F 76% 29.89 in 10.0 mi Calm Calm - N/A Thunderstorm Thunderstorm
7:04 PM 77.0 °F - 72.0 °F 84% 29.91 in 9.0 mi WNW 15.0 mph - 0.00 in Rain , Thunderstorm Light Thunderstorms and Rain
7:16 PM 75.0 °F - 71.1 °F 87% 29.92 in 5.0 mi West 18.4 mph - 0.00 in Rain , Thunderstorm Thunderstorms and Rain
7:26 PM 73.0 °F - 70.0 °F 90% 29.93 in 1.0 mi West 21.9 mph 29.9 mph 0.04 in Rain , Thunderstorm Heavy Thunderstorms and Rain
7:37 PM 72.0 °F - 69.1 °F 91% 29.92 in 2.0 mi NW 6.9 mph - 0.17 in Rain , Thunderstorm Heavy Thunderstorms and Rain
7:45 PM 72.0 °F - 69.1 °F 91% 29.91 in 4.0 mi Calm Calm - 0.28 in Rain , Thunderstorm Thunderstorms and Rain
7:53 PM 72.0 °F - 69.1 °F 91% 29.91 in 7.0 mi SE 4.6 mph - 0.29 in Rain , Thunderstorm Light Thunderstorms and Rain
8:20 PM 72.0 °F - 69.1 °F 91% 29.92 in 10.0 mi ESE 4.6 mph - 0.00 in Thunderstorm Thunderstorm
8:53 PM 73.0 °F - 70.0 °F 90% 29.94 in 10.0 mi SSE 6.9 mph - 0.00 in Thunderstorm Thunderstorm
9:39 PM 73.9 °F - 71.1 °F 91% 29.95 in 10.0 mi SE 5.8 mph - 0.02 in Rain Light Rain
9:53 PM 73.9 °F - 71.1 °F 91% 29.95 in 10.0 mi East 3.5 mph - 0.02 in   Mostly Cloudy
10:53 PM 73.9 °F - 71.1 °F 91% 29.96 in 10.0 mi SSE 3.5 mph - N/A   Mostly Cloudy
11:53 PM 75.0 °F - 72.0 °F 90% 29.96 in 10.0 mi SSE 3.5 mph - N/A   Scattered Clouds